| time (UTC) | temp F | wind direction | speed MPH | gust MPH | rain 1hr in | rain 24hr in | rain mn in | humidity % | barometer mb |
| 20260510192508 | 61 | 203 | 2.0 | 7.0 | 0.00 | 0.00 | 0.00 | 28 | 1018.3 |
| 20260510192007 | 61 | 329 | 3.0 | 7.0 | 0.00 | 0.00 | 0.00 | 25 | 1018.3 |
| 20260510191506 | 61 | 246 | 2.0 | 7.0 | 0.00 | 0.01 | 0.00 | 27 | 1018.3 |
| 20260510191006 | 60 | 360 | 3.0 | 6.0 | 0.00 | 0.01 | 0.00 | 26 | 1018.2 |
| 20260510190504 | 60 | 336 | 0.0 | 6.0 | 0.00 | 0.05 | 0.00 | 27 | 1018.3 |
| 20260510190016 | 61 | 304 | 1.0 | 6.0 | 0.00 | 0.10 | 0.00 | 27 | 1018.4 |
| 20260510185507 | 62 | 14 | 1.0 | 5.0 | 0.00 | 0.12 | 0.00 | 26 | 1018.3 |
| 20260510185017 | 62 | 335 | 3.0 | 5.0 | 0.00 | 0.12 | 0.00 | 27 | 1018.3 |
| 20260510184517 | 61 | 19 | 1.0 | 5.0 | 0.00 | 0.12 | 0.00 | 28 | 1018.2 |
| 20260510184010 | 61 | 352 | 2.0 | 8.0 | 0.00 | 0.12 | 0.00 | 28 | 1018.2 |
| 20260510183511 | 62 | 264 | 1.0 | 8.0 | 0.00 | 0.12 | 0.00 | 27 | 1018.2 |
| 20260510183024 | 62 | 317 | 1.0 | 6.0 | 0.00 | 0.12 | 0.00 | 28 | 1018.1 |
| 20260510182511 | 61 | 232 | 2.0 | 6.0 | 0.00 | 0.12 | 0.00 | 26 | 1018.2 |
| 20260510182014 | 61 | 250 | 1.0 | 4.0 | 0.00 | 0.12 | 0.00 | 26 | 1018.0 |
| 20260510181526 | 61 | 25 | 2.0 | 5.0 | 0.00 | 0.12 | 0.00 | 28 | 1018.0 |
| 20260510181004 | 60 | 285 | 1.0 | 5.0 | 0.00 | 0.12 | 0.00 | 28 | 1018.0 |
| 20260510180504 | 61 | 163 | 1.0 | 8.0 | 0.00 | 0.12 | 0.00 | 28 | 1018.0 |
| 20260510180022 | 60 | 274 | 2.0 | 8.0 | 0.00 | 0.12 | 0.00 | 28 | 1017.9 |
| 20260510175507 | 60 | 172 | 1.0 | 8.0 | 0.00 | 0.12 | 0.00 | 27 | 1017.9 |
| 20260510175011 | 60 | 115 | 2.0 | 8.0 | 0.00 | 0.12 | 0.00 | 25 | 1018.0 |
| 20260510174518 | 60 | 62 | 1.0 | 6.0 | 0.00 | 0.12 | 0.00 | 28 | 1017.9 |
| 20260510174008 | 59 | 269 | 1.0 | 6.0 | 0.00 | 0.12 | 0.00 | 27 | 1017.9 |
| 20260510173507 | 59 | 327 | 1.0 | 6.0 | 0.00 | 0.12 | 0.00 | 29 | 1017.9 |
| 20260510173022 | 59 | 52 | 2.0 | 8.0 | 0.00 | 0.12 | 0.00 | 30 | 1018.0 |
| 20260510172507 | 59 | 360 | 2.0 | 8.0 | 0.00 | 0.12 | 0.00 | 28 | 1017.8 |
| 20260510172013 | 58 | 276 | 3.0 | 9.0 | 0.00 | 0.12 | 0.00 | 28 | 1017.8 |
| 20260510171525 | 58 | 360 | 0.0 | 9.0 | 0.00 | 0.12 | 0.00 | 30 | 1017.9 |
| 20260510171006 | 58 | 360 | 3.0 | 6.0 | 0.00 | 0.12 | 0.00 | 27 | 1018.0 |
| 20260510170512 | 58 | 286 | 1.0 | 6.0 | 0.00 | 0.12 | 0.00 | 27 | 1018.1 |
| 20260510170012 | 57 | 20 | 2.0 | 8.0 | 0.00 | 0.12 | 0.00 | 29 | 1018.1 |
| 20260510165504 | 57 | 294 | 2.0 | 8.0 | 0.00 | 0.12 | 0.00 | 27 | 1018.1 |
| 20260510165003 | 57 | 336 | 3.0 | 9.0 | 0.00 | 0.12 | 0.00 | 27 | 1018.2 |
| 20260510164515 | 57 | 327 | 2.0 | 9.0 | 0.00 | 0.12 | 0.00 | 28 | 1018.1 |
| 20260510164008 | 56 | 215 | 2.0 | 6.0 | 0.00 | 0.12 | 0.00 | 29 | 1018.0 |
| 20260510163508 | 56 | 227 | 3.0 | 7.0 | 0.00 | 0.12 | 0.00 | 30 | 1018.0 |
| 20260510163029 | 57 | 36 | 4.0 | 7.0 | 0.00 | 0.12 | 0.00 | 29 | 1018.0 |
| 20260510162508 | 57 | 342 | 2.0 | 6.0 | 0.00 | 0.12 | 0.00 | 29 | 1018.1 |
| 20260510162012 | 57 | 294 | 2.0 | 8.0 | 0.00 | 0.12 | 0.00 | 29 | 1018.0 |
| 20260510161521 | 57 | 348 | 1.0 | 8.0 | 0.00 | 0.12 | 0.00 | 31 | 1018.0 |
| 20260510161011 | 57 | 281 | 2.0 | 8.0 | 0.00 | 0.12 | 0.00 | 31 | 1017.9 |
| 20260510160511 | 57 | 182 | 2.0 | 7.0 | 0.00 | 0.12 | 0.00 | 30 | 1017.8 |
| 20260510160028 | 57 | 301 | 3.0 | 8.0 | 0.00 | 0.12 | 0.00 | 37 | 1017.8 |
| 20260510155513 | 57 | 333 | 2.0 | 8.0 | 0.00 | 0.12 | 0.00 | 28 | 1017.8 |
| 20260510155005 | 57 | 245 | 1.0 | 6.0 | 0.00 | 0.12 | 0.00 | 31 | 1017.7 |
| 20260510154510 | 56 | 338 | 2.0 | 7.0 | 0.00 | 0.12 | 0.00 | 31 | 1017.7 |
| 20260510154006 | 57 | 323 | 3.0 | 7.0 | 0.00 | 0.12 | 0.00 | 29 | 1017.7 |
| 20260510153510 | 57 | 349 | 2.0 | 5.0 | 0.00 | 0.12 | 0.00 | 31 | 1017.7 |
| 20260510153018 | 56 | 338 | 1.0 | 9.0 | 0.00 | 0.12 | 0.00 | 33 | 1017.6 |
| 20260510152507 | 56 | 348 | 2.0 | 9.0 | 0.00 | 0.12 | 0.00 | 32 | 1017.5 |
| 20260510152011 | 56 | 352 | 3.0 | 9.0 | 0.00 | 0.12 | 0.00 | 36 | 1017.5 |
| 20260510151522 | 55 | 140 | 3.0 | 9.0 | 0.00 | 0.12 | 0.00 | 30 | 1017.4 |
| 20260510151009 | 55 | 343 | 1.0 | 7.0 | 0.00 | 0.12 | 0.00 | 34 | 1017.4 |
| 20260510150510 | 55 | 236 | 2.0 | 7.0 | 0.00 | 0.12 | 0.00 | 33 | 1017.3 |
| 20260510150026 | 55 | 249 | 2.0 | 4.0 | 0.00 | 0.12 | 0.00 | 33 | 1017.3 |
| 20260510145513 | 55 | 127 | 1.0 | 5.0 | 0.00 | 0.12 | 0.00 | 33 | 1017.2 |
| 20260510145013 | 55 | 352 | 2.0 | 5.0 | 0.00 | 0.12 | 0.00 | 33 | 1017.2 |
| 20260510144537 | 55 | 284 | 1.0 | 4.0 | 0.00 | 0.12 | 0.00 | 34 | 1017.2 |
| 20260510144010 | 55 | 14 | 1.0 | 4.0 | 0.00 | 0.12 | 0.00 | 36 | 1017.2 |
| 20260510143507 | 55 | 352 | 2.0 | 4.0 | 0.00 | 0.12 | 0.00 | 34 | 1017.1 |
| 20260510143018 | 54 | 29 | 2.0 | 5.0 | 0.00 | 0.12 | 0.00 | 37 | 1017.1 |
| 20260510142507 | 54 | 67 | 1.0 | 5.0 | 0.00 | 0.12 | 0.00 | 37 | 1017.1 |
| 20260510142013 | 53 | 68 | 1.0 | 4.0 | 0.00 | 0.12 | 0.00 | 35 | 1017.1 |
| 20260510141531 | 53 | 40 | 1.0 | 4.0 | 0.00 | 0.12 | 0.00 | 37 | 1017.0 |
| 20260510141009 | 53 | 352 | 2.0 | 5.0 | 0.00 | 0.12 | 0.00 | 35 | 1017.1 |
| 20260510140511 | 53 | 23 | 1.0 | 5.0 | 0.00 | 0.12 | 0.00 | 38 | 1017.1 |
| 20260510140028 | 53 | 338 | 1.0 | 5.0 | 0.00 | 0.12 | 0.00 | 40 | 1017.1 |
| 20260510135510 | 53 | 328 | 2.0 | 5.0 | 0.00 | 0.12 | 0.00 | 39 | 1017.1 |
| 20260510135011 | 53 | 46 | 1.0 | 4.0 | 0.00 | 0.12 | 0.00 | 39 | 1017.1 |
| 20260510134528 | 53 | 298 | 1.0 | 4.0 | 0.00 | 0.12 | 0.00 | 38 | 1017.1 |
| 20260510134010 | 53 | 309 | 0.0 | 3.0 | 0.00 | 0.12 | 0.00 | 40 | 1017.0 |
| 20260510133509 | 52 | 284 | 1.0 | 3.0 | 0.00 | 0.12 | 0.00 | 40 | 1017.0 |
| 20260510133032 | 52 | 61 | 1.0 | 3.0 | 0.00 | 0.12 | 0.00 | 42 | 1017.0 |
| 20260510132508 | 52 | 33 | 1.0 | 3.0 | 0.00 | 0.12 | 0.00 | 41 | 1016.9 |
| 20260510132012 | 52 | 40 | 1.0 | 4.0 | 0.00 | 0.12 | 0.00 | 42 | 1017.0 |
| 20260510131519 | 51 | 42 | 1.0 | 5.0 | 0.00 | 0.12 | 0.00 | 41 | 1016.8 |
| 20260510131008 | 51 | 37 | 2.0 | 6.0 | 0.00 | 0.12 | 0.00 | 42 | 1016.7 |
| 20260510130511 | 51 | 111 | 2.0 | 5.0 | 0.00 | 0.12 | 0.00 | 41 | 1016.7 |
| 20260510130021 | 51 | 46 | 1.0 | 5.0 | 0.00 | 0.12 | 0.00 | 42 | 1016.6 |
| 20260510125510 | 51 | 40 | 1.0 | 4.0 | 0.00 | 0.12 | 0.00 | 42 | 1016.5 |
| 20260510125010 | 51 | 34 | 1.0 | 4.0 | 0.00 | 0.12 | 0.00 | 43 | 1016.5 |
| 20260510124527 | 50 | 34 | 2.0 | 4.0 | 0.00 | 0.12 | 0.00 | 41 | 1016.5 |
| 20260510124007 | 50 | 343 | 0.0 | 3.0 | 0.00 | 0.12 | 0.00 | 44 | 1016.5 |
| 20260510123515 | 50 | 360 | 1.0 | 3.0 | 0.00 | 0.12 | 0.00 | 44 | 1016.4 |
| 20260510123028 | 50 | 290 | 1.0 | 3.0 | 0.00 | 0.12 | 0.00 | 45 | 1016.4 |
| 20260510122507 | 49 | 341 | 0.0 | 3.0 | 0.00 | 0.12 | 0.00 | 46 | 1016.3 |
| 20260510122007 | 49 | 320 | 1.0 | 3.0 | 0.00 | 0.12 | 0.00 | 46 | 1016.3 |
| 20260510121514 | 49 | 137 | 1.0 | 4.0 | 0.00 | 0.12 | 0.00 | 49 | 1016.3 |
| 20260510121008 | 48 | 316 | 1.0 | 4.0 | 0.00 | 0.12 | 0.00 | 50 | 1016.3 |
| 20260510120511 | 48 | 343 | 1.0 | 4.0 | 0.00 | 0.12 | 0.00 | 51 | 1016.2 |
| 20260510120019 | 48 | 39 | 1.0 | 2.0 | 0.00 | 0.12 | 0.00 | 53 | 1016.1 |
| 20260510115507 | 47 | 325 | 0.0 | 2.0 | 0.00 | 0.12 | 0.00 | 54 | 1016.0 |
| 20260510115011 | 46 | 325 | 1.0 | 2.0 | 0.00 | 0.12 | 0.00 | 55 | 1015.8 |
| 20260510114525 | 45 | 342 | 0.0 | 2.0 | 0.00 | 0.12 | 0.00 | 59 | 1015.7 |
| 20260510114013 | 44 | 340 | 0.0 | 7.0 | 0.00 | 0.12 | 0.00 | 62 | 1015.6 |
| 20260510113512 | 43 | 323 | 0.0 | 7.0 | 0.00 | 0.12 | 0.00 | 63 | 1015.6 |
| 20260510113029 | 42 | 313 | 0.0 | 2.0 | 0.00 | 0.12 | 0.00 | 65 | 1015.5 |
| 20260510112510 | 41 | 313 | 0.0 | 2.0 | 0.00 | 0.12 | 0.00 | 67 | 1015.5 |
| 20260510112010 | 41 | 313 | 0.0 | 1.0 | 0.00 | 0.12 | 0.00 | 71 | 1015.4 |
| 20260510111514 | 40 | 311 | 0.0 | 0.0 | 0.00 | 0.12 | 0.00 | 75 | 1015.4 |
| 20260510111007 | 40 | 311 | 0.0 | 0.0 | 0.00 | 0.12 | 0.00 | 76 | 1015.3 |
| 20260510110507 | 40 | 311 | 0.0 | 2.0 | 0.00 | 0.12 | 0.00 | 75 | 1015.2 |
| 20260510110026 | 40 | 311 | 0.0 | 2.0 | 0.00 | 0.12 | 0.00 | 75 | 1015.1 |
| 20260510105508 | 40 | 311 | 0.0 | 2.0 | 0.00 | 0.12 | 0.00 | 73 | 1015.1 |
| 20260510105010 | 40 | 311 | 0.0 | 0.0 | 0.00 | 0.12 | 0.00 | 75 | 1015.0 |
| 20260510104524 | 40 | 311 | 0.0 | 0.0 | 0.00 | 0.12 | 0.00 | 74 | 1015.2 |
| 20260510104011 | 40 | 311 | 0.0 | 0.0 | 0.00 | 0.12 | 0.00 | 72 | 1015.1 |
| 20260510103510 | 41 | 311 | 0.0 | 1.0 | 0.00 | 0.12 | 0.00 | 72 | 1014.9 |
| 20260510103028 | 41 | 311 | 0.0 | 1.0 | 0.00 | 0.12 | 0.00 | 71 | 1014.8 |
| 20260510102510 | 41 | 311 | 0.0 | 1.0 | 0.00 | 0.12 | 0.00 | 70 | 1014.8 |
| 20260510102016 | 41 | 311 | 0.0 | 1.0 | 0.00 | 0.12 | 0.00 | 70 | 1014.7 |
| 20260510101530 | 41 | 311 | 0.0 | 2.0 | 0.00 | 0.12 | 0.00 | 69 | 1014.6 |
| 20260510101009 | 42 | 311 | 0.0 | 2.0 | 0.00 | 0.12 | 0.00 | 68 | 1014.5 |
| 20260510100505 | 42 | 311 | 0.0 | 2.0 | 0.00 | 0.12 | 0.00 | 67 | 1014.5 |
| 20260510100011 | 42 | 311 | 0.0 | 2.0 | 0.00 | 0.12 | 0.00 | 66 | 1014.5 |
| 20260510095503 | 42 | 311 | 0.0 | 2.0 | 0.00 | 0.12 | 0.00 | 66 | 1014.4 |
| 20260510095004 | 43 | 311 | 0.0 | 0.0 | 0.00 | 0.12 | 0.00 | 65 | 1014.4 |
| 20260510094503 | 43 | 311 | 0.0 | 0.0 | 0.00 | 0.12 | 0.00 | 65 | 1014.3 |
| 20260510094003 | 43 | 311 | 0.0 | 2.0 | 0.00 | 0.12 | 0.00 | 64 | 1014.3 |
| 20260510093504 | 44 | 311 | 0.0 | 2.0 | 0.00 | 0.12 | 0.00 | 62 | 1014.4 |
| 20260510093006 | 44 | 311 | 0.0 | 2.0 | 0.00 | 0.12 | 0.00 | 62 | 1014.3 |
| 20260510092503 | 44 | 311 | 0.0 | 2.0 | 0.00 | 0.12 | 0.00 | 61 | 1014.2 |
| 20260510092006 | 44 | 311 | 0.0 | 2.0 | 0.00 | 0.12 | 0.00 | 60 | 1014.3 |
| 20260510091512 | 45 | 311 | 0.0 | 2.0 | 0.00 | 0.12 | 0.00 | 61 | 1014.2 |
| 20260510091009 | 45 | 312 | 0.0 | 2.0 | 0.00 | 0.12 | 0.00 | 59 | 1014.2 |
| 20260510090503 | 45 | 311 | 0.0 | 2.0 | 0.00 | 0.12 | 0.00 | 60 | 1014.0 |
| 20260510090016 | 45 | 313 | 0.0 | 2.0 | 0.00 | 0.12 | 0.00 | 58 | 1013.9 |
| 20260510085504 | 45 | 302 | 0.0 | 2.0 | 0.00 | 0.12 | 0.00 | 59 | 1013.7 |
| 20260510085004 | 45 | 304 | 0.0 | 2.0 | 0.00 | 0.12 | 0.00 | 59 | 1013.6 |
| 20260510084511 | 46 | 299 | 0.0 | 2.0 | 0.00 | 0.12 | 0.00 | 58 | 1013.5 |
| 20260510084006 | 46 | 292 | 0.0 | 2.0 | 0.00 | 0.12 | 0.00 | 57 | 1013.4 |
| 20260510083505 | 46 | 292 | 1.0 | 2.0 | 0.00 | 0.12 | 0.00 | 58 | 1013.2 |
| 20260510083005 | 46 | 326 | 0.0 | 2.0 | 0.00 | 0.12 | 0.00 | 57 | 1013.0 |
| 20260510082503 | 46 | 321 | 1.0 | 2.0 | 0.00 | 0.12 | 0.00 | 57 | 1012.9 |
| 20260510082003 | 46 | 321 | 1.0 | 2.0 | 0.00 | 0.12 | 0.00 | 58 | 1012.9 |
| 20260510081525 | 46 | 349 | 0.0 | 2.0 | 0.00 | 0.12 | 0.00 | 58 | 1012.7 |
| 20260510081004 | 46 | 333 | 0.0 | 2.0 | 0.00 | 0.12 | 0.00 | 58 | 1012.6 |
| 20260510080506 | 46 | 339 | 1.0 | 2.0 | 0.00 | 0.12 | 0.00 | 58 | 1012.5 |
| 20260510080013 | 46 | 311 | 0.0 | 2.0 | 0.00 | 0.12 | 0.00 | 59 | 1012.4 |
| 20260510075503 | 47 | 310 | 0.0 | 2.0 | 0.00 | 0.12 | 0.00 | 59 | 1012.3 |
| 20260510075006 | 47 | 310 | 0.0 | 0.0 | 0.00 | 0.12 | 0.00 | 59 | 1012.2 |
| 20260510074514 | 47 | 310 | 0.0 | 0.0 | 0.00 | 0.12 | 0.00 | 60 | 1012.0 |
| 20260510074003 | 47 | 310 | 0.0 | 2.0 | 0.00 | 0.12 | 0.00 | 56 | 1011.9 |
| 20260510073504 | 47 | 310 | 0.0 | 2.0 | 0.00 | 0.12 | 0.00 | 57 | 1011.7 |
| 20260510073014 | 48 | 345 | 0.0 | 2.0 | 0.00 | 0.12 | 0.00 | 60 | 1011.6 |
| 20260510072502 | 48 | 346 | 0.0 | 2.0 | 0.00 | 0.12 | 0.00 | 59 | 1011.6 |
| 20260510072004 | 48 | 344 | 0.0 | 2.0 | 0.00 | 0.12 | 0.00 | 58 | 1011.5 |
| 20260510071505 | 48 | 281 | 0.0 | 2.0 | 0.00 | 0.12 | 0.00 | 61 | 1011.5 |
| 20260510071003 | 48 | 313 | 0.0 | 2.0 | 0.00 | 0.12 | 0.00 | 61 | 1011.4 |
| 20260510070503 | 48 | 311 | 0.0 | 2.0 | 0.00 | 0.12 | 0.00 | 62 | 1011.3 |
| 20260510070007 | 48 | 311 | 1.0 | 3.0 | 0.00 | 0.12 | 0.00 | 61 | 1011.2 |
| 20260510065507 | 47 | 313 | 1.0 | 3.0 | 0.00 | 0.12 | 0.00 | 61 | 1011.2 |
| 20260510065007 | 47 | 325 | 0.0 | 2.0 | 0.00 | 0.12 | 0.00 | 65 | 1011.1 |
| 20260510064512 | 47 | 306 | 0.0 | 2.0 | 0.00 | 0.12 | 0.00 | 66 | 1011.1 |
| 20260510064005 | 47 | 306 | 0.0 | 1.0 | 0.00 | 0.12 | 0.00 | 69 | 1011.1 |
| 20260510063503 | 47 | 306 | 0.0 | 2.0 | 0.00 | 0.12 | 0.00 | 67 | 1011.0 |
| 20260510063016 | 48 | 306 | 0.0 | 2.0 | 0.00 | 0.12 | 0.00 | 67 | 1011.0 |
| 20260510062507 | 48 | 306 | 0.0 | 0.0 | 0.00 | 0.12 | 0.00 | 66 | 1011.1 |
| 20260510062011 | 48 | 306 | 0.0 | 2.0 | 0.00 | 0.12 | 0.00 | 67 | 1011.0 |
| 20260510061508 | 48 | 306 | 0.0 | 2.0 | 0.00 | 0.12 | 0.00 | 66 | 1011.0 |
| 20260510061003 | 48 | 16 | 0.0 | 0.0 | 0.00 | 0.12 | 0.00 | 66 | 1010.9 |
| 20260510060503 | 48 | 16 | 0.0 | 0.0 | 0.00 | 0.12 | 0.00 | 66 | 1010.9 |
| 20260510060006 | 48 | 16 | 0.0 | 1.0 | 0.00 | 0.12 | 0.00 | 65 | 1010.8 |
| 20260510055503 | 48 | 16 | 0.0 | 1.0 | 0.00 | 0.12 | 0.00 | 67 | 1010.8 |
| 20260510055003 | 49 | 16 | 0.0 | 0.0 | 0.00 | 0.12 | 0.00 | 68 | 1010.8 |
| 20260510054516 | 49 | 16 | 0.0 | 0.0 | 0.00 | 0.12 | 0.00 | 68 | 1010.8 |
| 20260510054009 | 49 | 16 | 0.0 | 0.0 | 0.00 | 0.12 | 0.00 | 67 | 1010.6 |
| 20260510053508 | 49 | 16 | 0.0 | 0.0 | 0.00 | 0.12 | 0.00 | 65 | 1010.6 |
| 20260510053032 | 50 | 16 | 0.0 | 0.0 | 0.00 | 0.12 | 0.00 | 64 | 1010.4 |
| 20260510052509 | 50 | 16 | 0.0 | 0.0 | 0.00 | 0.12 | 0.00 | 65 | 1010.3 |
| 20260510052012 | 50 | 16 | 0.0 | 0.0 | 0.00 | 0.12 | 0.00 | 62 | 1010.2 |
| 20260510051520 | 50 | 16 | 0.0 | 0.0 | 0.00 | 0.12 | 0.00 | 61 | 1010.0 |
| 20260510051004 | 51 | 16 | 0.0 | 0.0 | 0.00 | 0.12 | 0.00 | 62 | 1009.9 |
| 20260510050508 | 51 | 16 | 0.0 | 0.0 | 0.00 | 0.12 | 0.00 | 61 | 1009.9 |
| 20260510050005 | 51 | 16 | 0.0 | 1.0 | 0.00 | 0.12 | 0.00 | 61 | 1009.8 |
| 20260510045503 | 51 | 16 | 0.0 | 2.0 | 0.00 | 0.12 | 0.00 | 60 | 1009.7 |
| 20260510045003 | 52 | 16 | 0.0 | 2.0 | 0.00 | 0.12 | 0.00 | 60 | 1009.6 |
| 20260510044532 | 52 | 347 | 0.0 | 2.0 | 0.00 | 0.12 | 0.00 | 60 | 1009.5 |
| 20260510044003 | 53 | 321 | 0.0 | 2.0 | 0.00 | 0.12 | 0.00 | 57 | 1009.4 |
| 20260510043507 | 53 | 321 | 0.0 | 2.0 | 0.00 | 0.12 | 0.00 | 56 | 1009.3 |
| 20260510043016 | 53 | 321 | 0.0 | 0.0 | 0.00 | 0.12 | 0.00 | 56 | 1009.2 |
| 20260510042506 | 54 | 321 | 0.0 | 0.0 | 0.00 | 0.12 | 0.00 | 57 | 1009.1 |
| 20260510042008 | 54 | 321 | 0.0 | 1.0 | 0.00 | 0.12 | 0.00 | 55 | 1008.9 |
| 20260510041515 | 55 | 321 | 0.0 | 2.0 | 0.00 | 0.12 | 0.00 | 52 | 1008.9 |
| 20260510041007 | 55 | 321 | 0.0 | 2.0 | 0.00 | 0.12 | 0.00 | 50 | 1009.0 |
| 20260510040510 | 55 | 321 | 0.0 | 2.0 | 0.00 | 0.12 | 0.00 | 50 | 1008.9 |
| 20260510040031 | 56 | 317 | 0.0 | 2.0 | 0.00 | 0.12 | 0.00 | 49 | 1008.9 |
| 20260510035507 | 56 | 298 | 0.0 | 2.0 | 0.00 | 0.12 | 0.12 | 48 | 1008.8 |
| 20260510035007 | 56 | 325 | 0.0 | 2.0 | 0.00 | 0.12 | 0.12 | 48 | 1008.8 |
| 20260510034508 | 57 | 328 | 0.0 | 2.0 | 0.00 | 0.12 | 0.12 | 47 | 1008.7 |
| 20260510034003 | 57 | 333 | 1.0 | 2.0 | 0.00 | 0.12 | 0.12 | 47 | 1008.6 |
| 20260510033506 | 57 | 315 | 0.0 | 3.0 | 0.00 | 0.12 | 0.12 | 46 | 1008.4 |
| 20260510033012 | 57 | 311 | 0.0 | 3.0 | 0.00 | 0.12 | 0.12 | 46 | 1008.4 |
| 20260510032506 | 58 | 323 | 1.0 | 3.0 | 0.00 | 0.12 | 0.12 | 46 | 1008.3 |
| 20260510032013 | 58 | 315 | 1.0 | 3.0 | 0.00 | 0.12 | 0.12 | 45 | 1008.2 |
| 20260510031516 | 58 | 342 | 0.0 | 3.0 | 0.00 | 0.12 | 0.12 | 46 | 1008.0 |
| 20260510031006 | 58 | 329 | 0.0 | 4.0 | 0.00 | 0.12 | 0.12 | 44 | 1007.9 |
| 20260510030511 | 58 | 236 | 1.0 | 5.0 | 0.00 | 0.12 | 0.12 | 44 | 1007.8 |
| 20260510030019 | 59 | 352 | 0.0 | 5.0 | 0.00 | 0.12 | 0.12 | 44 | 1007.7 |
| 20260510025510 | 59 | 299 | 2.0 | 4.0 | 0.00 | 0.12 | 0.12 | 44 | 1007.7 |
| 20260510025007 | 59 | 300 | 0.0 | 4.0 | 0.00 | 0.12 | 0.12 | 43 | 1007.5 |
| 20260510024516 | 59 | 360 | 1.0 | 4.0 | 0.00 | 0.12 | 0.12 | 42 | 1007.4 |
| 20260510024003 | 60 | 273 | 1.0 | 3.0 | 0.00 | 0.12 | 0.12 | 42 | 1007.5 |
| 20260510023503 | 60 | 309 | 1.0 | 7.0 | 0.00 | 0.12 | 0.12 | 42 | 1007.3 |
| 20260510023008 | 61 | 316 | 1.0 | 8.0 | 0.00 | 0.12 | 0.12 | 41 | 1007.3 |
| 20260510022506 | 61 | 340 | 3.0 | 8.0 | 0.00 | 0.12 | 0.12 | 41 | 1007.1 |
| 20260510022009 | 61 | 360 | 3.0 | 6.0 | 0.00 | 0.12 | 0.12 | 43 | 1007.0 |
| 20260510021514 | 61 | 335 | 1.0 | 7.0 | 0.00 | 0.12 | 0.12 | 45 | 1006.9 |
| 20260510021006 | 61 | 325 | 1.0 | 7.0 | 0.00 | 0.12 | 0.12 | 46 | 1006.6 |
| 20260510020507 | 60 | 340 | 3.0 | 6.0 | 0.00 | 0.12 | 0.12 | 48 | 1006.5 |
| 20260510020021 | 59 | 321 | 1.0 | 3.0 | 0.00 | 0.12 | 0.12 | 51 | 1006.3 |
| 20260510015510 | 59 | 309 | 0.0 | 2.0 | 0.00 | 0.12 | 0.12 | 54 | 1006.2 |
| 20260510015012 | 59 | 317 | 0.0 | 2.0 | 0.00 | 0.12 | 0.12 | 53 | 1006.0 |
| 20260510014517 | 59 | 333 | 0.0 | 2.0 | 0.00 | 0.12 | 0.12 | 55 | 1006.0 |
| 20260510014007 | 59 | 333 | 0.0 | 2.0 | 0.00 | 0.12 | 0.12 | 56 | 1005.7 |
| 20260510013505 | 59 | 333 | 0.0 | 2.0 | 0.00 | 0.12 | 0.12 | 55 | 1005.6 |
| 20260510013010 | 59 | 333 | 0.0 | 0.0 | 0.00 | 0.12 | 0.12 | 55 | 1005.5 |
| 20260510012503 | 60 | 333 | 0.0 | 0.0 | 0.00 | 0.12 | 0.12 | 54 | 1005.2 |
| 20260510012007 | 60 | 333 | 0.0 | 0.0 | 0.00 | 0.12 | 0.12 | 52 | 1005.0 |
| 20260510011518 | 60 | 333 | 0.0 | 0.0 | 0.00 | 0.12 | 0.12 | 51 | 1004.9 |
| 20260510011007 | 61 | 333 | 0.0 | 0.0 | 0.00 | 0.12 | 0.12 | 49 | 1004.9 |
| 20260510010507 | 61 | 333 | 0.0 | 0.0 | 0.00 | 0.12 | 0.12 | 48 | 1004.8 |
| 20260510010025 | 62 | 333 | 0.0 | 1.0 | 0.00 | 0.12 | 0.12 | 48 | 1004.6 |
| 20260510005507 | 62 | 333 | 0.0 | 1.0 | 0.00 | 0.12 | 0.12 | 45 | 1004.6 |
| 20260510005011 | 63 | 327 | 0.0 | 2.0 | 0.00 | 0.12 | 0.12 | 44 | 1004.5 |
| 20260510004518 | 63 | 327 | 0.0 | 2.0 | 0.00 | 0.12 | 0.12 | 45 | 1004.5 |
| 20260510004007 | 64 | 327 | 0.0 | 2.0 | 0.00 | 0.12 | 0.12 | 44 | 1004.4 |
| 20260510003509 | 64 | 327 | 0.0 | 2.0 | 0.00 | 0.12 | 0.12 | 43 | 1004.4 |
| 20260510003026 | 65 | 5 | 1.0 | 6.0 | 0.00 | 0.12 | 0.12 | 40 | 1004.3 |
| 20260510002510 | 65 | 287 | 3.0 | 6.0 | 0.00 | 0.12 | 0.12 | 41 | 1004.3 |
| 20260510002006 | 65 | 9 | 0.0 | 4.0 | 0.00 | 0.12 | 0.12 | 39 | 1004.2 |
| 20260510001512 | 65 | 345 | 0.0 | 4.0 | 0.00 | 0.12 | 0.12 | 39 | 1004.1 |
| 20260510001009 | 65 | 19 | 1.0 | 4.0 | 0.00 | 0.12 | 0.12 | 39 | 1004.0 |
| 20260510000504 | 66 | 304 | 0.0 | 3.0 | 0.00 | 0.12 | 0.12 | 40 | 1003.9 |
| 20260510000024 | 66 | 28 | 1.0 | 8.0 | 0.00 | 0.12 | 0.12 | 37 | 1003.9 |
| 20260509235505 | 66 | 274 | 2.0 | 8.0 | 0.00 | 0.12 | 0.12 | 37 | 1003.9 |
| 20260509235010 | 67 | 331 | 2.0 | 9.0 | 0.00 | 0.12 | 0.12 | 37 | 1003.8 |
| 20260509234530 | 67 | 278 | 2.0 | 9.0 | 0.00 | 0.12 | 0.12 | 36 | 1003.8 |
| 20260509234013 | 67 | 264 | 1.0 | 3.0 | 0.00 | 0.12 | 0.12 | 41 | 1003.7 |
| 20260509233506 | 67 | 344 | 1.0 | 8.0 | 0.00 | 0.12 | 0.12 | 38 | 1003.7 |
| 20260509233026 | 67 | 290 | 3.0 | 8.0 | 0.00 | 0.12 | 0.12 | 36 | 1003.7 |
| 20260509232510 | 67 | 85 | 1.0 | 9.0 | 0.00 | 0.12 | 0.12 | 37 | 1003.6 |
| 20260509232007 | 67 | 244 | 2.0 | 9.0 | 0.00 | 0.12 | 0.12 | 36 | 1003.6 |
| 20260509231521 | 67 | 261 | 3.0 | 10.0 | 0.00 | 0.12 | 0.12 | 35 | 1003.7 |
| 20260509231003 | 68 | 298 | 1.0 | 10.0 | 0.00 | 0.12 | 0.12 | 36 | 1003.7 |
| 20260509230504 | 68 | 63 | 2.0 | 9.0 | 0.00 | 0.12 | 0.12 | 35 | 1003.6 |
| 20260509230026 | 68 | 333 | 3.0 | 9.0 | 0.00 | 0.12 | 0.12 | 34 | 1003.6 |
| 20260509225509 | 69 | 267 | 1.0 | 11.0 | 0.00 | 0.12 | 0.12 | 34 | 1003.6 |
| 20260509225009 | 69 | 180 | 4.0 | 11.0 | 0.00 | 0.12 | 0.12 | 33 | 1003.4 |
| 20260509224519 | 70 | 327 | 3.0 | 11.0 | 0.00 | 0.12 | 0.12 | 33 | 1003.4 |
| 20260509224008 | 70 | 13 | 2.0 | 10.0 | 0.00 | 0.12 | 0.12 | 35 | 1003.2 |
| 20260509223510 | 70 | 263 | 1.0 | 19.0 | 0.00 | 0.12 | 0.12 | 33 | 1003.2 |
| 20260509223021 | 70 | 269 | 5.0 | 19.0 | 0.00 | 0.12 | 0.12 | 34 | 1003.1 |
| 20260509222506 | 70 | 267 | 1.0 | 14.0 | 0.00 | 0.12 | 0.12 | 34 | 1003.0 |
| 20260509222008 | 70 | 220 | 3.0 | 14.0 | 0.00 | 0.12 | 0.12 | 33 | 1002.7 |
| 20260509221521 | 70 | 299 | 5.0 | 14.0 | 0.00 | 0.12 | 0.12 | 34 | 1002.8 |
| 20260509221010 | 70 | 307 | 3.0 | 13.0 | 0.00 | 0.12 | 0.12 | 32 | 1002.5 |
| 20260509220508 | 71 | 294 | 2.0 | 13.0 | 0.00 | 0.12 | 0.12 | 30 | 1002.5 |
| 20260509220011 | 71 | 86 | 2.0 | 12.0 | 0.00 | 0.12 | 0.12 | 31 | 1002.5 |
| 20260509215507 | 71 | 26 | 2.0 | 11.0 | 0.00 | 0.12 | 0.12 | 32 | 1002.3 |
| 20260509215008 | 71 | 255 | 3.0 | 10.0 | 0.00 | 0.12 | 0.12 | 32 | 1002.4 |
| 20260509214517 | 71 | 55 | 1.0 | 9.0 | 0.00 | 0.12 | 0.12 | 36 | 1002.4 |
| 20260509214008 | 71 | 5 | 3.0 | 10.0 | 0.00 | 0.12 | 0.12 | 34 | 1002.3 |
| 20260509213508 | 71 | 298 | 3.0 | 10.0 | 0.00 | 0.12 | 0.12 | 35 | 1002.2 |
| 20260509213021 | 71 | 342 | 1.0 | 7.0 | 0.00 | 0.12 | 0.12 | 36 | 1002.2 |
| 20260509212510 | 71 | 321 | 3.0 | 7.0 | 0.00 | 0.12 | 0.12 | 34 | 1002.2 |
| 20260509212005 | 70 | 282 | 1.0 | 6.0 | 0.00 | 0.12 | 0.12 | 36 | 1002.0 |
| 20260509211506 | 71 | 202 | 3.0 | 6.0 | 0.00 | 0.12 | 0.12 | 36 | 1002.1 |
| 20260509211004 | 70 | 43 | 2.0 | 5.0 | 0.00 | 0.12 | 0.12 | 40 | 1002.2 |
| 20260509210505 | 70 | 269 | 1.0 | 9.0 | 0.00 | 0.12 | 0.12 | 39 | 1002.1 |
| 20260509210016 | 70 | 352 | 4.0 | 9.0 | 0.00 | 0.12 | 0.12 | 37 | 1002.2 |
| 20260509205506 | 69 | 153 | 1.0 | 8.0 | 0.00 | 0.12 | 0.12 | 40 | 1002.3 |
| 20260509205006 | 69 | 243 | 2.0 | 9.0 | 0.00 | 0.12 | 0.12 | 40 | 1002.4 |
| 20260509204515 | 68 | 62 | 1.0 | 9.0 | 0.00 | 0.12 | 0.12 | 41 | 1002.5 |
| 20260509204006 | 68 | 18 | 3.0 | 9.0 | 0.00 | 0.12 | 0.12 | 40 | 1002.6 |
| 20260509203510 | 68 | 323 | 3.0 | 7.0 | 0.00 | 0.12 | 0.12 | 42 | 1002.7 |
| 20260509203026 | 68 | 211 | 1.0 | 8.0 | 0.00 | 0.12 | 0.12 | 45 | 1002.7 |
| 20260509202509 | 67 | 259 | 1.0 | 9.0 | 0.00 | 0.12 | 0.12 | 47 | 1002.7 |
| 20260509202010 | 67 | 263 | 2.0 | 9.0 | 0.00 | 0.12 | 0.12 | 46 | 1002.9 |
| 20260509201522 | 67 | 234 | 3.0 | 9.0 | 0.01 | 0.12 | 0.12 | 52 | 1003.0 |
| 20260509201002 | 66 | 250 | 1.0 | 7.0 | 0.01 | 0.12 | 0.12 | 59 | 1002.8 |
| 20260509200504 | 65 | 228 | 3.0 | 9.0 | 0.06 | 0.12 | 0.12 | 58 | 1002.9 |
| 20260509200008 | 65 | 5 | 2.0 | 9.0 | 0.10 | 0.12 | 0.12 | 63 | 1002.8 |
| 20260509195503 | 64 | 352 | 2.0 | 8.0 | 0.12 | 0.12 | 0.12 | 77 | 1002.8 |
| 20260509195005 | 63 | 344 | 2.0 | 4.0 | 0.12 | 0.12 | 0.12 | 76 | 1002.7 |
| 20260509194515 | 61 | 346 | 0.0 | 2.0 | 0.12 | 0.12 | 0.12 | 82 | 1002.8 |
| 20260509194007 | 60 | 337 | 0.0 | 2.0 | 0.12 | 0.12 | 0.12 | 84 | 1002.9 |
| 20260509193508 | 59 | 337 | 1.0 | 2.0 | 0.12 | 0.12 | 0.12 | 86 | 1003.0 |
| 20260509193016 | 58 | 314 | 0.0 | 2.0 | 0.12 | 0.12 | 0.12 | 85 | 1003.0 |